Location: Keppel Henge
(44.7900°N, 80.9447°W)
Time: 14:42:30
(UTC-04:00)

Envisat - Pass Details

Date: 09 October 2017
Orbit: 764 x 766 km, 98.2° (Epoch: 23 October)

Event Time Altitude Azimuth Distance (km) Brightness Sun altitude
Exits shadow 20:04:27 21° 95° (E) 1,662 4.1 -14.2°
Maximum altitude 20:06:13 26° 64° (ENE) 1,480 4.0 -14.5°
Drops below altitude 10° 20:10:22 10° 10° (N) 2,312 5.4 -15.2°
Sets 20:13:00 0° 358° (N) 3,243 6.4 -15.7°
